Find Starlink 31292

NORAD ID: 59081 Int'l Des: 2024-041 Owner: SPXS Country: US Constellation: starlink operational
LEOCIRCULAR

实时位置

正在加载3D地球...

关于 Starlink 31292

正在加载描述...

即将过境

Passes for default location (London). Set your location on the main map for personalized predictions.

高度历史

Loading altitude history...

两行轨道根数

1 59081U 24041H 26121.38510635 .00002068 00000-0 84628-4 0 9995
2 59081 43.0004 12.8481 0000717 308.2840 51.7947 15.27586670122320
Epoch: May 1, 2026 • Age: 15 hours

当前状态

高度 493.3 km
速度 7.62 km/s
星下点 -35.93°S, 13.84°E
发射日期 Feb 29, 2024
运行时间 2.1 years
类型 internet

技术详情

分类 Payload
质量 730.00 kg
干质量 700.00 kg
总质量 730.00 kg
长度 0.30 m
直径 4.10 m
跨度 29.00 m
形状 Box + pan
制造商 SPXS
平台类型 Starlink V2M
阶段状态 In Orbit
所有者/国家 SPXS/US

Most Searched